TimeEDT,TemperatureF,Dew PointF,Humidity,Sea Level PressureIn,VisibilityMPH,Wind Direction,Wind SpeedMPH,Gust SpeedMPH,PrecipitationIn,Events,Conditions,WindDirDegrees,DateUTC
12:53 AM,30.9,25.0,79,30.16,10.0,Calm,Calm,-,N/A,,Clear,0,2011-10-30 04:53:00
1:53 AM,30.9,26.1,82,30.15,10.0,Calm,Calm,-,N/A,,Clear,0,2011-10-30 05:53:00
2:53 AM,30.0,25.0,82,30.17,10.0,Calm,Calm,-,N/A,,Clear,0,2011-10-30 06:53:00
4:53 AM,28.9,25.0,85,30.18,10.0,Calm,Calm,-,N/A,,Clear,0,2011-10-30 08:53:00
5:53 AM,28.9,25.0,85,30.19,10.0,Calm,Calm,-,N/A,,Clear,0,2011-10-30 09:53:00
6:53 AM,30.0,25.0,82,30.21,10.0,Calm,Calm,-,N/A,,Clear,0,2011-10-30 10:53:00
7:53 AM,32.0,27.0,82,30.21,10.0,SSE,3.5,-,N/A,,Partly Cloudy,150,2011-10-30 11:53:00
8:53 AM,36.0,28.0,73,30.22,10.0,SSE,6.9,-,N/A,,Clear,150,2011-10-30 12:53:00
9:53 AM,39.9,30.0,68,30.24,10.0,SSE,5.8,-,N/A,,Clear,150,2011-10-30 13:53:00
10:53 AM,46.0,30.0,54,30.23,10.0,SSE,8.1,-,N/A,,Scattered Clouds,150,2011-10-30 14:53:00
11:53 AM,54.0,28.9,38,30.21,10.0,South,10.4,18.4,N/A,,Partly Cloudy,190,2011-10-30 15:53:00
12:53 PM,55.9,27.0,33,30.20,10.0,SSW,10.4,18.4,N/A,,Overcast,200,2011-10-30 16:53:00
1:53 PM,57.9,28.0,32,30.16,10.0,South,10.4,17.3,N/A,,Mostly Cloudy,190,2011-10-30 17:53:00
2:53 PM,59.0,26.1,28,30.13,10.0,SSW,15.0,21.9,N/A,,Mostly Cloudy,200,2011-10-30 18:53:00
3:53 PM,62.1,30.0,30,30.10,10.0,South,9.2,-,N/A,,Mostly Cloudy,190,2011-10-30 19:53:00
4:53 PM,59.0,28.0,31,30.09,10.0,South,12.7,-,N/A,,Clear,180,2011-10-30 20:53:00
5:53 PM,57.9,28.0,32,30.08,10.0,South,12.7,19.6,N/A,,Mostly Cloudy,190,2011-10-30 21:53:00
6:53 PM,54.0,28.0,37,30.08,10.0,South,8.1,-,N/A,,Partly Cloudy,180,2011-10-30 22:53:00
7:53 PM,52.0,28.9,41,30.09,10.0,South,3.5,-,N/A,,Mostly Cloudy,190,2011-10-30 23:53:00
8:53 PM,51.1,30.0,44,30.10,10.0,SSE,4.6,-,N/A,,Overcast,160,2011-10-31 00:53:00
9:53 PM,52.0,28.9,41,30.08,10.0,SSE,9.2,-,N/A,,Overcast,150,2011-10-31 01:53:00
10:53 PM,51.1,30.0,44,30.08,10.0,SSE,6.9,-,N/A,,Overcast,160,2011-10-31 02:53:00
11:53 PM,48.9,30.9,50,30.06,10.0,SSE,6.9,-,N/A,,Mostly Cloudy,150,2011-10-31 03:53:00